Find Starlink 11473

NORAD ID: 62060 Int'l Des: 2024-217 Owner: SPXS Country: US Constellation: starlink operational
別名: STARLINK-11473 [DTC] celestrak
LEOCIRCULAR

現在のビュー

3D地球を読み込み中...

About Starlink 11473

Starlink 11473 (NORAD 62060) is a starlink constellation satellite (v2 mini d2c) launched Nov 24, 2024 by SPXS of US. It operates in LEO, CIRCULAR orbit with a mass of 960.00 kg.

次回通過

Passes for default location (London). Set your location on the main map for personalized predictions.

高度履歴

Loading altitude history...

軌道要素

1 62060U 24217D 26265.19526939 .00146344 00000-0 11901-2 0 9991
2 62060 53.1585 182.8000 0001235 70.0359 290.0792 15.69740182106039
Epoch: Sep 22, 2026 • Age: 21 hours

現在のステータス

高度 371.0 km
遠地点 / 近地点 N/A
速度 7.69 km/s
衛星直下点 -36.31°S, 115.18°E
打ち上げ日 Nov 24, 2024
運用期間 1.8 years
タイプ internet

技術仕様

分類 Payload
質量 960.00 kg
乾燥質量 910.00 kg
長さ 0.30 m
スパン 29.00 m
形状 ? Box + pan
製造者 SPXS
バスタイプ Starlink V2MD
フェーズステータス In Orbit
所有者/国 SPXS/US

Most Searched